Time,TemperatureF,DewpointF,PressureIn,WindDirection,WindDirectionDegrees,WindSpeedMPH,WindSpeedGustMPH,Humidity,HourlyPrecipIn,Conditions,Clouds,dailyrainin,SoftwareType,DateUTC
2013-06-29 00:01:00,61.7,62.6,29.49,ESE,115,0.0,0.0,100,-99.99,,,-99.99,perl,2013-06-29 04:01:00,
2013-06-29 00:02:00,61.7,62.6,29.49,ESE,115,0.0,0.0,100,-99.99,,,-99.99,perl,2013-06-29 04:02:00,
2013-06-29 00:03:00,61.9,62.6,29.49,ESE,116,0.0,0.0,100,-99.99,,,-99.99,perl,2013-06-29 04:03:00,
2013-06-29 00:06:00,61.9,62.6,29.49,ESE,116,0.0,0.0,100,-99.99,,,-99.99,perl,2013-06-29 04:06:00,
2013-06-29 00:08:00,61.9,62.6,29.49,ESE,115,0.0,0.0,100,-99.99,,,-99.99,perl,2013-06-29 04:08:00,
2013-06-29 00:14:00,61.9,62.6,29.49,ESE,116,0.0,0.0,100,-99.99,,,-99.99,perl,2013-06-29 04:14:00,
2013-06-29 00:19:00,61.9,62.6,29.49,ESE,116,0.0,0.0,100,-99.99,,,-99.99,perl,2013-06-29 04:19:00,
2013-06-29 00:24:00,61.9,62.6,29.49,ESE,116,0.0,0.0,100,-99.99,,,-99.99,perl,2013-06-29 04:24:00,
2013-06-29 00:29:00,61.9,62.6,29.49,ESE,115,0.0,0.0,100,-99.99,,,-99.99,perl,2013-06-29 04:29:00,
2013-06-29 00:34:00,61.9,62.6,29.49,ESE,115,0.0,0.0,100,-99.99,,,-99.99,perl,2013-06-29 04:34:00,
2013-06-29 00:39:00,61.9,62.6,29.49,ESE,115,0.0,0.0,100,-99.99,,,-99.99,perl,2013-06-29 04:39:00,
2013-06-29 00:44:00,61.9,62.6,29.49,ESE,115,0.0,0.0,100,-99.99,,,-99.99,perl,2013-06-29 04:44:00,
2013-06-29 00:49:00,61.9,62.6,29.49,ESE,116,0.0,0.0,100,-99.99,,,-99.99,perl,2013-06-29 04:49:00,
2013-06-29 00:54:00,61.9,62.6,29.49,ESE,115,0.0,0.0,100,-99.99,,,-99.99,perl,2013-06-29 04:54:00,
2013-06-29 00:59:00,62.1,62.6,29.49,ESE,115,0.0,0.0,100,-99.99,,,-99.99,perl,2013-06-29 04:59:00,
2013-06-29 01:04:00,61.9,62.6,29.49,ESE,116,0.0,0.0,100,-99.99,,,-99.99,perl,2013-06-29 05:04:00,
2013-06-29 01:09:00,61.9,62.6,29.49,ESE,115,0.0,0.0,100,-99.99,,,-99.99,perl,2013-06-29 05:09:00,
2013-06-29 01:14:00,61.9,62.6,29.49,ESE,116,0.0,0.0,100,-99.99,,,-99.99,perl,2013-06-29 05:14:00,
2013-06-29 01:19:00,61.9,62.6,29.49,ESE,115,0.0,0.0,100,-99.99,,,-99.99,perl,2013-06-29 05:19:00,
2013-06-29 01:24:00,61.9,62.6,29.49,ESE,115,0.0,0.0,100,-99.99,,,-99.99,perl,2013-06-29 05:24:00,
2013-06-29 01:29:00,62.1,62.6,29.49,ESE,115,0.0,0.0,100,-99.99,,,-99.99,perl,2013-06-29 05:29:00,
2013-06-29 01:34:00,62.1,62.6,29.49,ESE,115,0.0,0.0,100,-99.99,,,-99.99,perl,2013-06-29 05:34:00,
2013-06-29 01:39:00,62.1,62.6,29.49,ESE,116,0.0,0.0,100,-99.99,,,-99.99,perl,2013-06-29 05:39:00,
2013-06-29 01:44:00,62.1,62.6,29.49,ESE,116,0.0,0.0,100,-99.99,,,-99.99,perl,2013-06-29 05:44:00,
2013-06-29 01:49:00,62.1,62.6,29.49,SE,126,0.0,0.0,100,-99.99,,,-99.99,perl,2013-06-29 05:49:00,
2013-06-29 01:54:00,62.1,62.6,29.49,South,176,0.0,0.0,100,-99.99,,,-99.99,perl,2013-06-29 05:54:00,
2013-06-29 02:00:00,62.1,62.6,29.49,SSE,155,0.0,0.0,100,-99.99,,,-99.99,perl,2013-06-29 06:00:00,
2013-06-29 02:05:00,62.1,62.6,29.49,SW,232,0.0,0.0,100,-99.99,,,-99.99,perl,2013-06-29 06:05:00,
2013-06-29 02:10:00,62.1,62.6,29.49,ENE,67,0.0,0.0,100,-99.99,,,-99.99,perl,2013-06-29 06:10:00,
2013-06-29 02:15:00,62.1,62.6,29.46,ENE,66,0.0,0.0,100,-99.99,,,-99.99,perl,2013-06-29 06:15:00,
2013-06-29 02:20:00,62.1,62.6,29.46,ENE,67,0.0,0.0,100,-99.99,,,-99.99,perl,2013-06-29 06:20:00,
2013-06-29 02:25:00,61.9,62.6,29.46,ENE,66,0.0,0.0,100,-99.99,,,-99.99,perl,2013-06-29 06:25:00,
2013-06-29 02:30:00,61.9,62.6,29.49,ENE,67,0.0,0.0,100,-99.99,,,-99.99,perl,2013-06-29 06:30:00,
2013-06-29 02:35:00,61.9,62.6,29.49,ENE,66,0.0,0.0,100,-99.99,,,-99.99,perl,2013-06-29 06:35:00,
2013-06-29 02:40:00,61.9,62.6,29.49,ENE,66,0.0,0.0,100,-99.99,,,-99.99,perl,2013-06-29 06:40:00,
2013-06-29 02:45:00,61.9,62.6,29.49,ENE,67,0.0,0.0,100,-99.99,,,-99.99,perl,2013-06-29 06:45:00,
2013-06-29 02:50:00,61.7,62.6,29.49,SE,138,0.0,0.0,100,-99.99,,,-99.99,perl,2013-06-29 06:50:00,
2013-06-29 02:55:00,61.7,62.6,29.49,SE,135,0.0,0.0,100,-99.99,,,-99.99,perl,2013-06-29 06:55:00,
2013-06-29 03:00:00,61.7,62.6,29.46,SE,134,0.0,0.0,100,-99.99,,,-99.99,perl,2013-06-29 07:00:00,
2013-06-29 03:05:00,61.7,62.6,29.46,SE,134,0.0,0.0,100,-99.99,,,-99.99,perl,2013-06-29 07:05:00,
2013-06-29 03:10:00,61.7,62.6,29.46,East,90,0.0,0.0,100,-99.99,,,-99.99,perl,2013-06-29 07:10:00,
2013-06-29 03:15:00,61.7,62.6,29.46,East,90,0.0,0.0,100,-99.99,,,-99.99,perl,2013-06-29 07:15:00,
2013-06-29 03:20:00,61.7,62.6,29.46,East,89,0.0,0.0,100,-99.99,,,-99.99,perl,2013-06-29 07:20:00,
2013-06-29 03:25:00,61.7,62.6,29.46,East,90,0.0,0.0,100,-99.99,,,-99.99,perl,2013-06-29 07:25:00,
2013-06-29 03:30:00,61.5,60.8,29.46,East,90,0.0,0.0,98,-99.99,,,-99.99,perl,2013-06-29 07:30:00,
2013-06-29 03:35:00,61.5,60.8,29.46,East,90,0.0,0.0,98,-99.99,,,-99.99,perl,2013-06-29 07:35:00,
2013-06-29 03:40:00,61.5,60.8,29.46,East,89,0.0,0.0,98,-99.99,,,-99.99,perl,2013-06-29 07:40:00,
2013-06-29 03:46:00,61.5,60.8,29.46,East,89,0.0,0.0,98,-99.99,,,-99.99,perl,2013-06-29 07:46:00,
2013-06-29 03:51:00,61.5,60.8,29.46,East,89,0.0,0.0,98,-99.99,,,-99.99,perl,2013-06-29 07:51:00,
2013-06-29 03:56:00,61.5,60.8,29.46,East,90,0.0,0.0,98,-99.99,,,-99.99,perl,2013-06-29 07:56:00,
2013-06-29 04:01:00,61.5,60.8,29.46,East,90,0.0,0.0,98,-99.99,,,-99.99,perl,2013-06-29 08:01:00,
2013-06-29 04:06:00,61.5,60.8,29.46,East,89,0.0,0.0,98,-99.99,,,-99.99,perl,2013-06-29 08:06:00,
2013-06-29 04:11:00,61.5,60.8,29.46,East,89,0.0,0.0,98,-99.99,,,-99.99,perl,2013-06-29 08:11:00,
2013-06-29 04:16:00,61.7,62.6,29.46,East,90,0.0,0.0,100,-99.99,,,-99.99,perl,2013-06-29 08:16:00,
2013-06-29 04:21:00,61.7,62.6,29.46,East,90,0.0,0.0,100,-99.99,,,-99.99,perl,2013-06-29 08:21:00,
2013-06-29 04:26:00,61.7,62.6,29.46,East,90,0.0,0.0,100,-99.99,,,-99.99,perl,2013-06-29 08:26:00,
2013-06-29 04:31:00,61.7,62.6,29.46,East,89,0.0,0.0,100,-99.99,,,-99.99,perl,2013-06-29 08:31:00,
2013-06-29 04:36:00,61.7,62.6,29.46,East,90,0.0,0.0,100,-99.99,,,-99.99,perl,2013-06-29 08:36:00,
2013-06-29 04:41:00,61.7,62.6,29.46,East,90,0.0,0.0,100,-99.99,,,-99.99,perl,2013-06-29 08:41:00,
2013-06-29 04:47:00,61.7,62.6,29.46,East,90,0.0,0.0,100,-99.99,,,-99.99,perl,2013-06-29 08:47:00,
2013-06-29 04:52:00,61.7,62.6,29.46,East,90,0.0,0.0,100,-99.99,,,-99.99,perl,2013-06-29 08:52:00,
2013-06-29 04:57:00,61.9,62.6,29.46,East,90,0.0,0.0,100,-99.99,,,-99.99,perl,2013-06-29 08:57:00,
2013-06-29 05:03:00,61.9,62.6,29.46,East,91,0.0,0.0,100,-99.99,,,-99.99,perl,2013-06-29 09:03:00,
2013-06-29 05:08:00,61.9,62.6,29.46,East,90,0.0,0.0,100,-99.99,,,-99.99,perl,2013-06-29 09:08:00,
2013-06-29 05:14:00,61.9,62.6,29.46,East,89,0.0,0.0,100,-99.99,,,-99.99,perl,2013-06-29 09:14:00,
2013-06-29 05:19:00,61.9,62.6,29.46,East,90,0.0,0.0,100,-99.99,,,-99.99,perl,2013-06-29 09:19:00,
2013-06-29 05:24:00,61.9,62.6,29.46,East,91,0.0,0.0,100,-99.99,,,-99.99,perl,2013-06-29 09:24:00,
2013-06-29 05:29:00,62.1,62.6,29.46,East,90,0.0,0.0,100,-99.99,,,-99.99,perl,2013-06-29 09:29:00,
2013-06-29 05:34:00,62.1,62.6,29.46,East,90,0.0,0.0,100,-99.99,,,-99.99,perl,2013-06-29 09:34:00,
2013-06-29 05:39:00,62.1,62.6,29.46,East,90,0.0,0.0,100,-99.99,,,-99.99,perl,2013-06-29 09:39:00,
2013-06-29 05:45:00,62.1,62.6,29.49,East,89,0.0,0.0,100,-99.99,,,-99.99,perl,2013-06-29 09:45:00,
2013-06-29 05:50:00,62.1,62.6,29.49,East,90,0.0,0.0,100,-99.99,,,-99.99,perl,2013-06-29 09:50:00,
2013-06-29 05:55:00,62.2,62.6,29.49,East,90,0.0,0.0,100,-99.99,,,-99.99,perl,2013-06-29 09:55:00,
2013-06-29 06:00:00,62.2,62.6,29.49,East,90,0.0,0.0,100,-99.99,,,-99.99,perl,2013-06-29 10:00:00,
2013-06-29 06:06:00,62.2,62.6,29.49,East,90,0.0,0.0,100,-99.99,,,-99.99,perl,2013-06-29 10:06:00,
2013-06-29 06:12:00,62.2,62.6,29.49,East,89,0.0,0.0,100,-99.99,,,-99.99,perl,2013-06-29 10:12:00,
2013-06-29 06:17:00,62.2,62.6,29.49,East,91,0.0,0.0,100,-99.99,,,-99.99,perl,2013-06-29 10:17:00,
2013-06-29 06:22:00,62.2,62.6,29.49,ESE,120,0.0,0.0,100,-99.99,,,-99.99,perl,2013-06-29 10:22:00,
2013-06-29 06:27:00,62.2,62.6,29.49,ESE,121,0.0,0.0,100,-99.99,,,-99.99,perl,2013-06-29 10:27:00,
2013-06-29 06:32:00,62.2,62.6,29.49,ESE,121,0.0,0.0,100,-99.99,,,-99.99,perl,2013-06-29 10:32:00,
2013-06-29 06:37:00,62.2,62.6,29.49,ESE,118,0.0,0.0,100,-99.99,,,-99.99,perl,2013-06-29 10:37:00,
2013-06-29 06:44:00,62.2,62.6,29.49,ESE,119,0.0,0.0,100,-99.99,,,-99.99,perl,2013-06-29 10:44:00,
2013-06-29 06:49:00,62.2,62.6,29.49,ESE,118,0.0,0.0,100,-99.99,,,-99.99,perl,2013-06-29 10:49:00,
2013-06-29 06:54:00,62.2,62.6,29.49,East,90,0.0,0.0,100,-99.99,,,-99.99,perl,2013-06-29 10:54:00,
2013-06-29 06:59:00,62.2,62.6,29.49,East,90,0.0,0.0,100,-99.99,,,-99.99,perl,2013-06-29 10:59:00,
2013-06-29 07:04:00,62.2,62.6,29.49,East,89,0.0,0.0,100,-99.99,,,-99.99,perl,2013-06-29 11:04:00,
2013-06-29 07:09:00,62.2,62.6,29.49,East,90,0.0,0.0,100,-99.99,,,-99.99,perl,2013-06-29 11:09:00,
2013-06-29 07:15:00,62.2,62.6,29.49,ESE,109,0.0,0.0,100,-99.99,,,-99.99,perl,2013-06-29 11:15:00,
2013-06-29 07:20:00,62.2,62.6,29.49,SE,129,0.0,0.0,100,-99.99,,,-99.99,perl,2013-06-29 11:20:00,
2013-06-29 07:25:00,62.2,62.6,29.49,SE,129,0.0,0.0,100,-99.99,,,-99.99,perl,2013-06-29 11:25:00,
2013-06-29 07:30:00,62.2,62.6,29.49,SE,130,0.0,0.0,100,-99.99,,,-99.99,perl,2013-06-29 11:30:00,
2013-06-29 07:35:00,62.4,62.6,29.49,SE,129,0.0,0.0,100,-99.99,,,-99.99,perl,2013-06-29 11:35:00,
2013-06-29 07:41:00,62.4,62.6,29.49,SE,129,0.0,0.0,100,-99.99,,,-99.99,perl,2013-06-29 11:41:00,
2013-06-29 07:46:00,62.6,62.6,29.49,SE,130,0.0,0.0,100,-99.99,,,-99.99,perl,2013-06-29 11:46:00,
2013-06-29 07:51:00,62.6,62.6,29.49,SE,129,0.0,0.0,100,-99.99,,,-99.99,perl,2013-06-29 11:51:00,
2013-06-29 07:56:00,62.6,62.6,29.49,SE,129,0.0,0.0,100,-99.99,,,-99.99,perl,2013-06-29 11:56:00,
2013-06-29 08:01:00,62.8,62.6,29.49,SE,129,0.0,0.0,99,-99.99,,,-99.99,perl,2013-06-29 12:01:00,
2013-06-29 08:07:00,62.8,62.6,29.49,West,259,0.0,0.0,99,-99.99,,,-99.99,perl,2013-06-29 12:07:00,
2013-06-29 08:12:00,62.8,62.6,29.49,SE,142,0.0,0.0,99,-99.99,,,-99.99,perl,2013-06-29 12:12:00,
2013-06-29 08:17:00,62.6,62.6,29.49,ESE,110,0.0,0.0,100,-99.99,,,-99.99,perl,2013-06-29 12:17:00,
2013-06-29 08:22:00,62.6,62.6,29.49,ENE,71,0.0,0.0,100,-99.99,,,-99.99,perl,2013-06-29 12:22:00,
2013-06-29 08:27:00,62.6,62.6,29.49,ENE,71,0.0,0.0,100,-99.99,,,-99.99,perl,2013-06-29 12:27:00,
2013-06-29 08:32:00,62.8,62.6,29.49,ENE,72,0.0,0.0,99,-99.99,,,-99.99,perl,2013-06-29 12:32:00,
2013-06-29 08:37:00,63.0,62.6,29.49,ENE,72,0.0,0.0,99,-99.99,,,-99.99,perl,2013-06-29 12:37:00,
2013-06-29 08:42:00,63.0,62.6,29.49,ENE,71,0.0,0.0,99,-99.99,,,-99.99,perl,2013-06-29 12:42:00,
2013-06-29 08:47:00,63.1,62.6,29.49,ENE,71,0.0,0.0,99,-99.99,,,-99.99,perl,2013-06-29 12:47:00,
2013-06-29 08:52:00,63.1,62.6,29.49,ENE,72,0.0,0.0,99,-99.99,,,-99.99,perl,2013-06-29 12:52:00,
2013-06-29 08:57:00,63.1,62.6,29.49,ENE,71,0.0,0.0,99,-99.99,,,-99.99,perl,2013-06-29 12:57:00,
2013-06-29 09:02:00,63.1,62.6,29.52,ENE,72,0.0,0.0,99,-99.99,,,-99.99,perl,2013-06-29 13:02:00,
2013-06-29 09:07:00,63.1,62.6,29.52,ENE,72,0.0,0.0,99,-99.99,,,-99.99,perl,2013-06-29 13:07:00,
2013-06-29 09:12:00,63.1,62.6,29.52,ENE,72,0.0,0.0,99,-99.99,,,-99.99,perl,2013-06-29 13:12:00,
2013-06-29 09:17:00,63.3,62.6,29.52,SE,128,0.0,0.0,98,-99.99,,,-99.99,perl,2013-06-29 13:17:00,
2013-06-29 09:22:00,63.3,62.6,29.52,ENE,60,0.0,0.0,98,-99.99,,,-99.99,perl,2013-06-29 13:22:00,
2013-06-29 09:27:00,63.7,64.4,29.52,ESE,114,0.0,0.0,100,-99.99,,,-99.99,perl,2013-06-29 13:27:00,
2013-06-29 09:32:00,63.7,64.4,29.52,SE,134,0.0,0.0,100,-99.99,,,-99.99,perl,2013-06-29 13:32:00,
2013-06-29 09:37:00,63.7,64.4,29.52,SE,135,0.0,0.0,100,-99.99,,,-99.99,perl,2013-06-29 13:37:00,
2013-06-29 09:42:00,64.0,64.4,29.52,SE,134,0.0,0.0,100,-99.99,,,-99.99,perl,2013-06-29 13:42:00,
2013-06-29 09:47:00,64.2,64.4,29.52,SE,127,0.0,0.0,100,-99.99,,,-99.99,perl,2013-06-29 13:47:00,
2013-06-29 09:52:00,64.2,64.4,29.52,SE,131,0.0,0.0,100,-99.99,,,-99.99,perl,2013-06-29 13:52:00,
2013-06-29 09:58:00,64.2,64.4,29.52,SE,130,0.0,0.0,100,-99.99,,,-99.99,perl,2013-06-29 13:58:00,
2013-06-29 10:03:00,64.2,64.4,29.52,SE,131,0.0,0.0,100,-99.99,,,-99.99,perl,2013-06-29 14:03:00,
2013-06-29 10:08:00,64.2,64.4,29.52,SE,130,0.0,0.0,100,-99.99,,,-99.99,perl,2013-06-29 14:08:00,
2013-06-29 10:14:00,64.4,64.4,29.52,SE,131,0.0,0.0,100,-99.99,,,-99.99,perl,2013-06-29 14:14:00,
2013-06-29 10:19:00,64.2,64.4,29.49,SE,130,0.0,0.0,100,-99.99,,,-99.99,perl,2013-06-29 14:19:00,
2013-06-29 10:24:00,64.2,64.4,29.49,SE,130,0.0,0.0,100,-99.99,,,-99.99,perl,2013-06-29 14:24:00,
2013-06-29 10:29:00,64.4,64.4,29.49,SE,130,0.0,0.0,100,-99.99,,,-99.99,perl,2013-06-29 14:29:00,
2013-06-29 10:35:00,64.4,64.4,29.49,SE,131,0.0,0.0,100,-99.99,,,-99.99,perl,2013-06-29 14:35:00,
2013-06-29 10:40:00,64.6,64.4,29.49,ESE,114,0.0,0.0,99,-99.99,,,-99.99,perl,2013-06-29 14:40:00,
2013-06-29 10:45:00,64.8,64.4,29.52,NE,51,0.0,0.0,99,-99.99,,,-99.99,perl,2013-06-29 14:45:00,
2013-06-29 10:50:00,65.1,64.4,29.52,East,87,0.0,0.0,98,-99.99,,,-99.99,perl,2013-06-29 14:50:00,
2013-06-29 10:55:00,65.5,66.2,29.52,East,87,0.0,0.0,100,-99.99,,,-99.99,perl,2013-06-29 14:55:00,
2013-06-29 11:00:00,65.5,66.2,29.52,East,88,0.0,0.0,100,-99.99,,,-99.99,perl,2013-06-29 15:00:00,
2013-06-29 11:05:00,65.7,66.2,29.52,East,87,0.0,0.0,100,-99.99,,,-99.99,perl,2013-06-29 15:05:00,
2013-06-29 11:10:00,65.7,66.2,29.52,East,87,0.0,0.0,100,-99.99,,,-99.99,perl,2013-06-29 15:10:00,
2013-06-29 11:15:00,65.5,66.2,29.52,ESE,106,0.0,0.0,100,-99.99,,,-99.99,perl,2013-06-29 15:15:00,
2013-06-29 11:21:00,65.7,66.2,29.52,NE,50,0.0,0.0,100,-99.99,,,-99.99,perl,2013-06-29 15:21:00,
2013-06-29 11:26:00,65.7,66.2,29.52,North,353,0.0,0.0,100,-99.99,,,-99.99,perl,2013-06-29 15:26:00,
2013-06-29 11:31:00,66.0,66.2,29.52,SE,124,0.0,0.0,100,-99.99,,,-99.99,perl,2013-06-29 15:31:00,
2013-06-29 11:36:00,66.7,66.2,29.52,ESE,123,0.0,0.0,99,-99.99,,,-99.99,perl,2013-06-29 15:36:00,
2013-06-29 11:41:00,66.9,66.2,29.52,ENE,64,0.0,0.0,98,-99.99,,,-99.99,perl,2013-06-29 15:41:00,
2013-06-29 11:46:00,67.5,68.0,29.52,ESE,117,0.0,0.0,100,-99.99,,,-99.99,perl,2013-06-29 15:46:00,
2013-06-29 11:51:00,67.5,68.0,29.52,WSW,255,0.0,0.0,100,-99.99,,,-99.99,perl,2013-06-29 15:51:00,
2013-06-29 11:57:00,68.0,68.0,29.52,ENE,69,0.0,0.0,100,-99.99,,,-99.99,perl,2013-06-29 15:57:00,
2013-06-29 12:02:00,68.0,68.0,29.52,East,101,0.0,0.0,100,-99.99,,,-99.99,perl,2013-06-29 16:02:00,
2013-06-29 12:07:00,68.5,68.0,29.52,East,92,0.0,0.0,99,-99.99,,,-99.99,perl,2013-06-29 16:07:00,
2013-06-29 12:12:00,69.3,69.8,29.52,SE,132,0.0,0.0,100,-99.99,,,-99.99,perl,2013-06-29 16:12:00,
2013-06-29 12:17:00,69.6,69.8,29.52,East,83,0.0,0.0,100,-99.99,,,-99.99,perl,2013-06-29 16:17:00,
2013-06-29 12:22:00,69.6,69.8,29.52,ENE,58,0.0,0.0,100,-99.99,,,-99.99,perl,2013-06-29 16:22:00,
2013-06-29 12:27:00,70.0,69.8,29.52,North,357,0.0,0.0,99,-99.99,,,-99.99,perl,2013-06-29 16:27:00,
2013-06-29 12:32:00,70.3,69.8,29.52,NNW,339,0.0,0.0,99,-99.99,,,-99.99,perl,2013-06-29 16:32:00,
2013-06-29 12:37:00,70.3,69.8,29.52,NNW,347,0.0,0.0,99,-99.99,,,-99.99,perl,2013-06-29 16:37:00,
2013-06-29 12:42:00,70.2,69.8,29.52,ENE,74,0.0,0.0,99,-99.99,,,-99.99,perl,2013-06-29 16:42:00,
2013-06-29 12:47:00,70.0,69.8,29.52,North,353,0.0,0.0,99,-99.99,,,-99.99,perl,2013-06-29 16:47:00,
2013-06-29 12:52:00,70.2,69.8,29.52,NNW,347,0.0,0.0,99,-99.99,,,-99.99,perl,2013-06-29 16:52:00,
2013-06-29 12:57:00,70.5,69.8,29.52,East,93,0.0,0.0,98,-99.99,,,-99.99,perl,2013-06-29 16:57:00,
2013-06-29 13:03:00,71.2,71.6,29.52,WNW,296,0.0,0.0,100,-99.99,,,-99.99,perl,2013-06-29 17:03:00,
2013-06-29 13:08:00,72.1,71.6,29.52,NNW,346,0.0,0.0,98,-99.99,,,-99.99,perl,2013-06-29 17:08:00,
2013-06-29 13:13:00,72.7,73.4,29.52,ESE,102,0.0,0.0,100,-99.99,,,-99.99,perl,2013-06-29 17:13:00,
2013-06-29 13:18:00,73.0,73.4,29.52,WSW,256,0.0,0.0,100,-99.99,,,-99.99,perl,2013-06-29 17:18:00,
2013-06-29 13:23:00,73.8,73.4,29.52,SW,236,0.0,0.0,99,-99.99,,,-99.99,perl,2013-06-29 17:23:00,
2013-06-29 13:28:00,73.6,73.4,29.52,ENE,77,0.0,0.0,99,-99.99,,,-99.99,perl,2013-06-29 17:28:00,
2013-06-29 13:33:00,73.6,73.4,29.52,North,355,0.0,0.0,99,-99.99,,,-99.99,perl,2013-06-29 17:33:00,
2013-06-29 13:38:00,73.6,73.4,29.52,SW,228,0.0,0.0,99,-99.99,,,-99.99,perl,2013-06-29 17:38:00,
2013-06-29 13:43:00,73.6,73.4,29.52,South,173,0.0,0.0,99,-99.99,,,-99.99,perl,2013-06-29 17:43:00,
2013-06-29 13:48:00,73.6,73.4,29.52,North,8,0.0,0.0,99,-99.99,,,-99.99,perl,2013-06-29 17:48:00,
2013-06-29 13:53:00,73.4,73.4,29.52,ESE,115,0.0,0.0,100,-99.99,,,-99.99,perl,2013-06-29 17:53:00,
2013-06-29 13:58:00,73.4,73.4,29.52,NE,50,0.0,0.0,100,-99.99,,,-99.99,perl,2013-06-29 17:58:00,
2013-06-29 14:03:00,73.0,73.4,29.52,NNE,32,0.0,0.0,100,-99.99,,,-99.99,perl,2013-06-29 18:03:00,
2013-06-29 14:08:00,73.2,73.4,29.52,WSW,257,0.0,0.0,100,-99.99,,,-99.99,perl,2013-06-29 18:08:00,
2013-06-29 14:13:00,73.4,73.4,29.52,NNW,337,0.0,0.0,100,-99.99,,,-99.99,perl,2013-06-29 18:13:00,
2013-06-29 14:18:00,72.7,73.4,29.52,NNE,21,0.0,0.0,100,-99.99,,,-99.99,perl,2013-06-29 18:18:00,
2013-06-29 14:25:00,73.0,71.6,29.52,NNE,13,0.0,0.0,95,-99.99,,,-99.99,perl,2013-06-29 18:25:00,
2013-06-29 14:30:00,73.4,71.6,29.52,WSW,258,0.0,0.0,94,-99.99,,,-99.99,perl,2013-06-29 18:30:00,
2013-06-29 14:35:00,73.6,71.6,29.52,SSW,201,0.0,0.0,93,-99.99,,,-99.99,perl,2013-06-29 18:35:00,
2013-06-29 14:40:00,73.8,71.6,29.52,NNW,337,0.0,0.0,92,-99.99,,,-99.99,perl,2013-06-29 18:40:00,
2013-06-29 14:45:00,73.8,69.8,29.52,SE,143,0.0,0.0,87,-99.99,,,-99.99,perl,2013-06-29 18:45:00,
2013-06-29 14:50:00,74.1,69.8,29.52,SSE,167,0.0,0.0,87,-99.99,,,-99.99,perl,2013-06-29 18:50:00,
2013-06-29 14:55:00,74.5,71.6,29.52,NW,325,0.0,0.0,90,-99.99,,,-99.99,perl,2013-06-29 18:55:00,
2013-06-29 15:00:00,74.5,69.8,29.55,NE,35,0.0,0.0,85,-99.99,,,-99.99,perl,2013-06-29 19:00:00,
2013-06-29 15:05:00,74.8,69.8,29.55,South,174,0.0,0.0,85,-99.99,,,-99.99,perl,2013-06-29 19:05:00,
2013-06-29 15:10:00,75.0,69.8,29.55,North,350,0.0,0.0,84,-99.99,,,-99.99,perl,2013-06-29 19:10:00,
2013-06-29 15:15:00,74.7,68.0,29.55,ESE,107,0.0,3.1,80,-99.99,,,-99.99,perl,2013-06-29 19:15:00,
2013-06-29 15:20:00,73.9,66.2,29.55,ESE,105,1.8,0.0,77,-99.99,,,-99.99,perl,2013-06-29 19:20:00,
2013-06-29 15:25:00,73.8,66.2,29.55,WNW,292,0.0,0.0,77,-99.99,,,-99.99,perl,2013-06-29 19:25:00,
2013-06-29 15:31:00,73.8,64.4,29.55,North,355,0.0,0.0,73,-99.99,,,-99.99,perl,2013-06-29 19:31:00,
2013-06-29 15:36:00,73.8,62.6,29.55,ESE,111,0.0,0.0,68,-99.99,,,-99.99,perl,2013-06-29 19:36:00,
2013-06-29 15:41:00,73.9,62.6,29.55,WNW,286,0.0,0.0,68,-99.99,,,-99.99,perl,2013-06-29 19:41:00,
2013-06-29 15:46:00,73.9,62.6,29.55,SW,222,0.0,0.0,68,-99.99,,,-99.99,perl,2013-06-29 19:46:00,
2013-06-29 15:51:00,74.1,62.6,29.55,ESE,107,0.0,0.0,68,-99.99,,,-99.99,perl,2013-06-29 19:51:00,
2013-06-29 15:56:00,74.5,64.4,29.55,NNW,338,0.0,0.0,71,-99.99,,,-99.99,perl,2013-06-29 19:56:00,
2013-06-29 16:01:00,74.5,64.4,29.55,SSW,198,0.0,0.0,71,-99.99,,,-99.99,perl,2013-06-29 20:01:00,
2013-06-29 16:06:00,74.8,64.4,29.55,WSW,243,0.0,0.0,70,-99.99,,,-99.99,perl,2013-06-29 20:06:00,
2013-06-29 16:11:00,75.2,64.4,29.55,WSW,248,0.0,0.0,69,-99.99,,,-99.99,perl,2013-06-29 20:11:00,
2013-06-29 16:16:00,75.9,62.6,29.55,WNW,287,0.0,0.0,64,-99.99,,,-99.99,perl,2013-06-29 20:16:00,
2013-06-29 16:21:00,76.1,64.4,29.55,SSW,196,0.0,0.0,68,-99.99,,,-99.99,perl,2013-06-29 20:21:00,
2013-06-29 16:26:00,76.3,62.6,29.55,SW,228,0.0,0.0,63,-99.99,,,-99.99,perl,2013-06-29 20:26:00,
2013-06-29 16:31:00,76.6,62.6,29.55,West,269,0.0,0.0,62,-99.99,,,-99.99,perl,2013-06-29 20:31:00,
2013-06-29 16:36:00,77.2,60.8,29.55,NNE,16,0.0,0.0,57,-99.99,,,-99.99,perl,2013-06-29 20:36:00,
2013-06-29 16:41:00,77.2,60.8,29.55,NW,309,0.0,0.0,57,-99.99,,,-99.99,perl,2013-06-29 20:41:00,
2013-06-29 16:46:00,76.5,59.0,29.55,NNW,328,0.0,0.0,55,-99.99,,,-99.99,perl,2013-06-29 20:46:00,
2013-06-29 16:51:00,76.5,60.8,29.55,NW,317,0.0,0.0,58,-99.99,,,-99.99,perl,2013-06-29 20:51:00,
2013-06-29 16:56:00,76.8,57.2,29.55,SW,232,0.0,0.0,51,-99.99,,,-99.99,perl,2013-06-29 20:56:00,
2013-06-29 17:01:00,76.6,59.0,29.55,West,279,0.0,0.0,55,-99.99,,,-99.99,perl,2013-06-29 21:01:00,
2013-06-29 17:06:00,77.0,59.0,29.55,NE,41,0.0,0.0,54,-99.99,,,-99.99,perl,2013-06-29 21:06:00,
2013-06-29 17:11:00,77.4,59.0,29.55,NE,51,0.0,0.0,53,-99.99,,,-99.99,perl,2013-06-29 21:11:00,
2013-06-29 17:16:00,77.4,59.0,29.55,North,9,0.0,0.0,53,-99.99,,,-99.99,perl,2013-06-29 21:16:00,
2013-06-29 17:22:00,77.4,57.2,29.55,WNW,297,0.0,0.0,50,-99.99,,,-99.99,perl,2013-06-29 21:22:00,
2013-06-29 17:27:00,77.0,57.2,29.55,WSW,245,0.0,0.0,51,-99.99,,,-99.99,perl,2013-06-29 21:27:00,
2013-06-29 17:32:00,76.8,57.2,29.55,WSW,244,0.0,0.0,51,-99.99,,,-99.99,perl,2013-06-29 21:32:00,
2013-06-29 17:38:00,76.8,59.0,29.55,WSW,245,0.0,0.0,55,-99.99,,,-99.99,perl,2013-06-29 21:38:00,
2013-06-29 17:44:00,76.3,59.0,29.55,WSW,244,0.0,0.0,55,-99.99,,,-99.99,perl,2013-06-29 21:44:00,
2013-06-29 17:49:00,76.1,59.0,29.55,WSW,245,0.0,0.0,56,-99.99,,,-99.99,perl,2013-06-29 21:49:00,
2013-06-29 17:54:00,75.9,57.2,29.55,WSW,244,0.0,0.0,53,-99.99,,,-99.99,perl,2013-06-29 21:54:00,
2013-06-29 17:59:00,75.9,57.2,29.55,WSW,244,0.0,0.0,53,-99.99,,,-99.99,perl,2013-06-29 21:59:00,
2013-06-29 18:04:00,75.9,57.2,29.55,WSW,244,0.0,0.0,53,-99.99,,,-99.99,perl,2013-06-29 22:04:00,
2013-06-29 18:09:00,75.9,57.2,29.55,WSW,245,0.0,0.0,53,-99.99,,,-99.99,perl,2013-06-29 22:09:00,
2013-06-29 18:14:00,75.7,57.2,29.55,WSW,244,0.0,0.0,53,-99.99,,,-99.99,perl,2013-06-29 22:14:00,
2013-06-29 18:19:00,75.7,59.0,29.55,WSW,244,0.0,0.0,57,-99.99,,,-99.99,perl,2013-06-29 22:19:00,
2013-06-29 18:24:00,75.7,57.2,29.55,WSW,245,0.0,0.0,53,-99.99,,,-99.99,perl,2013-06-29 22:24:00,
2013-06-29 18:29:00,75.7,57.2,29.58,WSW,244,0.0,0.0,53,-99.99,,,-99.99,perl,2013-06-29 22:29:00,
2013-06-29 18:34:00,75.6,57.2,29.58,WSW,245,0.0,0.0,53,-99.99,,,-99.99,perl,2013-06-29 22:34:00,
2013-06-29 18:39:00,75.4,57.2,29.58,WSW,244,0.0,0.0,53,-99.99,,,-99.99,perl,2013-06-29 22:39:00,
2013-06-29 18:44:00,75.2,57.2,29.58,WSW,244,0.0,0.0,54,-99.99,,,-99.99,perl,2013-06-29 22:44:00,
2013-06-29 18:49:00,75.2,57.2,29.58,WSW,245,0.0,0.0,54,-99.99,,,-99.99,perl,2013-06-29 22:49:00,
2013-06-29 18:54:00,75.2,59.0,29.58,SSW,199,0.0,0.0,57,-99.99,,,-99.99,perl,2013-06-29 22:54:00,
2013-06-29 18:59:00,75.2,59.0,29.58,SSW,199,0.0,0.0,57,-99.99,,,-99.99,perl,2013-06-29 22:59:00,
2013-06-29 19:04:00,75.2,59.0,29.58,SSW,199,0.0,0.0,57,-99.99,,,-99.99,perl,2013-06-29 23:04:00,
2013-06-29 19:09:00,74.8,59.0,29.58,West,261,0.0,0.0,58,-99.99,,,-99.99,perl,2013-06-29 23:09:00,
2013-06-29 19:14:00,74.3,59.0,29.58,North,353,0.0,0.0,59,-99.99,,,-99.99,perl,2013-06-29 23:14:00,
2013-06-29 19:19:00,73.9,59.0,29.58,North,353,0.0,0.0,60,-99.99,,,-99.99,perl,2013-06-29 23:19:00,
2013-06-29 19:24:00,73.8,59.0,29.58,North,353,0.0,0.0,60,-99.99,,,-99.99,perl,2013-06-29 23:24:00,
2013-06-29 19:29:00,73.4,59.0,29.58,North,353,0.0,0.0,61,-99.99,,,-99.99,perl,2013-06-29 23:29:00,
2013-06-29 19:34:00,73.2,59.0,29.61,ENE,67,0.0,0.0,61,-99.99,,,-99.99,perl,2013-06-29 23:34:00,
2013-06-29 19:39:00,72.9,59.0,29.61,ENE,70,0.0,0.0,62,-99.99,,,-99.99,perl,2013-06-29 23:39:00,
2013-06-29 19:44:00,72.7,60.8,29.61,ENE,70,0.0,0.0,66,-99.99,,,-99.99,perl,2013-06-29 23:44:00,
2013-06-29 19:50:00,72.5,60.8,29.61,ENE,69,0.0,0.0,67,-99.99,,,-99.99,perl,2013-06-29 23:50:00,
2013-06-29 19:55:00,72.3,59.0,29.61,ENE,68,0.0,0.0,63,-99.99,,,-99.99,perl,2013-06-29 23:55:00,
2013-06-29 20:00:00,72.3,59.0,29.61,ENE,68,0.0,0.0,63,-99.99,,,-99.99,perl,2013-06-30 00:00:00,
2013-06-29 20:05:00,72.1,59.0,29.61,ENE,68,0.0,0.0,64,-99.99,,,-99.99,perl,2013-06-30 00:05:00,
2013-06-29 20:11:00,71.8,59.0,29.61,ENE,69,0.0,0.0,64,-99.99,,,-99.99,perl,2013-06-30 00:11:00,
2013-06-29 20:16:00,71.4,59.0,29.61,ENE,69,0.0,0.0,65,-99.99,,,-99.99,perl,2013-06-30 00:16:00,
2013-06-29 20:21:00,71.1,60.8,29.61,ENE,68,0.0,0.0,70,-99.99,,,-99.99,perl,2013-06-30 00:21:00,
2013-06-29 20:27:00,70.7,60.8,29.61,ENE,69,0.0,0.0,71,-99.99,,,-99.99,perl,2013-06-30 00:27:00,
2013-06-29 20:32:00,70.5,59.0,29.61,ENE,69,0.0,0.0,67,-99.99,,,-99.99,perl,2013-06-30 00:32:00,
2013-06-29 20:37:00,70.2,59.0,29.61,ENE,69,0.0,0.0,68,-99.99,,,-99.99,perl,2013-06-30 00:37:00,
2013-06-29 20:42:00,70.0,59.0,29.61,ENE,68,0.0,0.0,68,-99.99,,,-99.99,perl,2013-06-30 00:42:00,
2013-06-29 20:47:00,69.8,59.0,29.61,ENE,69,0.0,0.0,69,-99.99,,,-99.99,perl,2013-06-30 00:47:00,
2013-06-29 20:52:00,69.4,59.0,29.61,ENE,68,0.0,0.0,70,-99.99,,,-99.99,perl,2013-06-30 00:52:00,
2013-06-29 20:57:00,69.3,59.0,29.61,ENE,69,0.0,0.0,70,-99.99,,,-99.99,perl,2013-06-30 00:57:00,
2013-06-29 21:02:00,69.3,59.0,29.61,ENE,69,0.0,0.0,70,-99.99,,,-99.99,perl,2013-06-30 01:02:00,
2013-06-29 21:07:00,69.1,60.8,29.61,ENE,69,0.0,0.0,75,-99.99,,,-99.99,perl,2013-06-30 01:07:00,
2013-06-29 21:12:00,69.1,60.8,29.61,ENE,68,0.0,0.0,75,-99.99,,,-99.99,perl,2013-06-30 01:12:00,
2013-06-29 21:17:00,68.9,60.8,29.61,ENE,69,0.0,0.0,75,-99.99,,,-99.99,perl,2013-06-30 01:17:00,
2013-06-29 21:22:00,68.9,60.8,29.61,ENE,68,0.0,0.0,75,-99.99,,,-99.99,perl,2013-06-30 01:22:00,
2013-06-29 21:27:00,68.7,59.0,29.61,ENE,68,0.0,0.0,72,-99.99,,,-99.99,perl,2013-06-30 01:27:00,
2013-06-29 21:32:00,68.5,59.0,29.64,ENE,69,0.0,0.0,72,-99.99,,,-99.99,perl,2013-06-30 01:32:00,
2013-06-29 21:37:00,68.4,59.0,29.64,ENE,68,0.0,0.0,72,-99.99,,,-99.99,perl,2013-06-30 01:37:00,
2013-06-29 21:42:00,68.2,59.0,29.64,ENE,68,0.0,0.0,73,-99.99,,,-99.99,perl,2013-06-30 01:42:00,
2013-06-29 21:47:00,68.2,59.0,29.64,ENE,68,0.0,0.0,73,-99.99,,,-99.99,perl,2013-06-30 01:47:00,
2013-06-29 21:52:00,68.2,60.8,29.64,ENE,69,0.0,0.0,77,-99.99,,,-99.99,perl,2013-06-30 01:52:00,
2013-06-29 21:57:00,68.2,60.8,29.64,ENE,69,0.0,0.0,77,-99.99,,,-99.99,perl,2013-06-30 01:57:00,
2013-06-29 22:02:00,68.2,60.8,29.64,ENE,68,0.0,0.0,77,-99.99,,,-99.99,perl,2013-06-30 02:02:00,
2013-06-29 22:08:00,68.0,60.8,29.64,ENE,69,0.0,0.0,78,-99.99,,,-99.99,perl,2013-06-30 02:08:00,
2013-06-29 22:13:00,68.0,60.8,29.64,ENE,68,0.0,0.0,78,-99.99,,,-99.99,perl,2013-06-30 02:13:00,
2013-06-29 22:18:00,68.0,60.8,29.64,ENE,69,0.0,0.0,78,-99.99,,,-99.99,perl,2013-06-30 02:18:00,
2013-06-29 22:23:00,68.0,60.8,29.64,ENE,68,0.0,0.0,78,-99.99,,,-99.99,perl,2013-06-30 02:23:00,
2013-06-29 22:28:00,68.0,60.8,29.64,ENE,69,0.0,0.0,78,-99.99,,,-99.99,perl,2013-06-30 02:28:00,
2013-06-29 22:34:00,68.0,60.8,29.64,ENE,68,0.0,0.0,78,-99.99,,,-99.99,perl,2013-06-30 02:34:00,
2013-06-29 22:39:00,67.8,60.8,29.64,ENE,69,0.0,0.0,79,-99.99,,,-99.99,perl,2013-06-30 02:39:00,
2013-06-29 22:44:00,67.6,60.8,29.64,ENE,69,0.0,0.0,79,-99.99,,,-99.99,perl,2013-06-30 02:44:00,
2013-06-29 22:49:00,67.6,60.8,29.67,ENE,68,0.0,0.0,79,-99.99,,,-99.99,perl,2013-06-30 02:49:00,
2013-06-29 22:55:00,67.5,60.8,29.67,ENE,68,0.0,0.0,79,-99.99,,,-99.99,perl,2013-06-30 02:55:00,
2013-06-29 23:00:00,67.5,60.8,29.67,ENE,68,0.0,0.0,79,-99.99,,,-99.99,perl,2013-06-30 03:00:00,
2013-06-29 23:05:00,67.3,60.8,29.67,ENE,69,0.0,0.0,80,-99.99,,,-99.99,perl,2013-06-30 03:05:00,
2013-06-29 23:10:00,67.5,60.8,29.67,ENE,68,0.0,0.0,79,-99.99,,,-99.99,perl,2013-06-30 03:10:00,
2013-06-29 23:15:00,67.5,62.6,29.67,ENE,68,0.0,0.0,84,-99.99,,,-99.99,perl,2013-06-30 03:15:00,
2013-06-29 23:20:00,67.6,62.6,29.67,ENE,68,0.0,0.0,84,-99.99,,,-99.99,perl,2013-06-30 03:20:00,
2013-06-29 23:25:00,67.6,62.6,29.67,WSW,257,0.0,0.0,84,-99.99,,,-99.99,perl,2013-06-30 03:25:00,
2013-06-29 23:32:00,67.6,62.6,29.67,West,271,0.0,0.0,84,-99.99,,,-99.99,perl,2013-06-30 03:32:00,
2013-06-29 23:37:00,67.6,62.6,29.67,West,271,0.0,0.0,84,-99.99,,,-99.99,perl,2013-06-30 03:37:00,
2013-06-29 23:42:00,67.5,62.6,29.67,West,271,0.0,0.0,84,-99.99,,,-99.99,perl,2013-06-30 03:42:00,
2013-06-29 23:47:00,67.3,62.6,29.67,West,271,0.0,0.0,85,-99.99,,,-99.99,perl,2013-06-30 03:47:00,
2013-06-29 23:52:00,67.3,62.6,29.67,West,271,0.0,0.0,85,-99.99,,,-99.99,perl,2013-06-30 03:52:00,
2013-06-29 23:57:00,67.1,62.6,29.67,West,271,0.0,0.0,86,-99.99,,,-99.99,perl,2013-06-30 03:57:00,